GFSNW_700_spd_297.txt.gz
Wind_Speed
49 53 51 44 48 49 49 51 45 41 37 39 39 43 37 25 20 19 17 17 13 21 25 23 21 18 16 16 20 19 15 8 7 16 13 15 16 15 15 8 6 7 3 6
54 49 51 43 52 47 46 53 45 40 41 42 39 42 40 27 24 22 20 17 14 12 19 19 20 21 19 11 17 14 17 9 5 4 12 17 18 19 18 18 12 11 5 5
51 53 54 49 49 56 55 52 47 39 43 43 44 44 42 34 26 25 21 22 14 14 18 21 17 22 20 16 13 19 15 15 11 6 3 5 11 18 20 20 11 13 19 13
56 54 48 49 49 49 54 61 40 50 48 48 45 41 35 36 30 29 25 23 20 20 21 23 15 18 19 15 15 19 18 14 15 16 11 10 11 10 13 19 21 16 16 15
56 55 53 49 50 48 50 51 45 47 28 46 47 44 38 41 31 29 28 25 24 20 24 21 14 16 13 14 15 19 21 12 12 15 17 15 17 17 18 18 22 25 25 24
54 58 54 54 48 45 44 54 47 40 48 42 51 45 40 38 36 27 25 23 22 21 21 18 16 12 13 12 14 15 21 18 12 7 12 13 17 21 22 22 21 19 20 15
60 54 55 52 54 42 51 55 50 40 43 42 42 41 36 37 40 34 24 19 20 24 25 22 19 17 14 12 14 15 13 17 13 6 6 2 11 13 11 10 15 17 16 18
46 47 39 52 45 48 57 53 45 43 40 40 30 39 38 37 33 30 26 22 24 23 26 21 17 14 12 13 14 14 16 16 10 6 10 12 11 15 14 13 15 18 19 17
36 42 39 48 50 49 58 51 44 40 37 34 34 28 35 36 34 30 25 25 25 24 23 20 15 8 9 7 9 17 17 17 18 10 4 6 7 13 14 16 21 21 19 17
42 41 45 48 47 50 51 49 44 40 34 22 28 27 29 37 33 31 28 28 28 27 26 22 16 12 10 7 8 12 18 18 19 18 9 9 13 12 14 12 14 11 13 16
46 43 48 54 50 54 53 48 42 37 29 16 23 28 31 31 33 32 30 29 31 28 23 19 15 12 13 13 14 11 14 9 10 13 9 11 13 15 16 14 15 16 16 17
45 41 50 54 56 54 51 44 40 36 25 17 23 26 34 33 27 30 25 26 19 29 23 20 15 15 12 18 12 19 14 18 7 10 7 7 8 12 15 17 19 18 20 22
40 46 52 58 55 51 44 42 37 31 26 20 25 29 30 33 32 26 26 23 23 21 24 23 19 14 16 19 20 17 19 18 18 14 18 18 15 15 18 20 20 23 24 27
41 55 52 54 59 57 48 42 33 30 28 23 31 30 28 30 31 28 26 24 24 23 19 24 23 16 14 17 16 15 19 17 22 24 23 18 18 19 21 22 23 25 27 29
48 46 48 65 54 47 40 37 33 31 29 24 34 31 29 28 29 27 25 23 23 23 22 22 22 22 17 15 15 17 17 20 22 23 19 19 20 21 21 24 24 25 29 33
46 46 54 50 45 44 40 35 31 31 31 16 37 31 29 26 24 23 23 23 22 21 24 21 21 19 16 10 17 19 18 20 21 19 19 21 24 26 27 27 29 31 33 35
50 61 56 52 48 43 40 37 35 31 28 16 32 31 29 27 24 22 21 19 17 18 18 18 18 18 18 18 18 14 15 20 21 21 20 21 22 21 23 25 29 32 29 28
63 62 58 53 48 45 39 32 32 28 25 22 17 18 29 27 25 22 20 18 17 17 18 17 17 19 18 16 20 20 20 19 17 17 17 16 18 22 25 26 24 23 26 29
68 66 56 49 42 42 40 32 28 29 29 23 18 23 23 25 22 22 20 18 21 19 21 21 18 19 14 17 18 16 15 16 17 18 18 20 21 22 20 21 24 27 31 34
66 53 46 45 42 37 32 28 29 30 31 25 20 21 19 21 23 24 23 17 13 9 18 16 21 22 20 20 16 15 15 15 14 14 16 17 18 19 21 23 28 32 35 38
56 50 41 46 43 36 30 25 25 22 22 27 26 23 25 27 23 22 18 10 9 8 12 16 9 16 22 21 18 15 13 12 14 15 16 18 19 19 23 28 32 35 38 41
60 56 46 42 36 21 13 18 16 13 20 18 31 30 23 20 20 15 16 9 8 6 12 13 8 15 16 16 17 14 14 15 15 16 18 18 20 25 30 32 35 38 42 44
52 45 44 31 19 16 14 17 17 15 18 25 31 30 26 18 20 12 12 10 10 7 11 8 12 14 16 18 15 14 13 14 15 15 16 20 26 30 33 36 39 41 44 44
46 28 29 14 11 13 12 23 23 20 16 26 33 28 24 24 19 9 8 10 8 10 8 11 13 12 13 14 14 14 15 14 15 17 21 26 30 32 35 38 41 44 43 42
25 12 12 14 14 18 14 22 26 19 15 21 30 27 20 25 9 9 8 11 8 9 11 10 10 12 13 13 14 14 14 15 17 21 26 30 32 35 38 40 41 40 40 39
19 8 15 18 19 20 19 24 25 23 27 31 30 20 13 13 7 9 8 7 7 7 7 9 10 12 13 13 13 14 16 18 22 26 29 31 34 38 41 41 39 39 37 37
11 20 22 21 21 19 22 25 22 20 29 34 21 14 11 8 9 9 8 8 6 5 8 10 10 11 12 13 14 16 18 22 24 27 30 34 38 40 40 40 39 37 34 34

GFSNW_700_spd_300.txt.gz
Wind_Speed
54 56 56 46 49 47 43 43 41 43 42 35 40 40 36 35 19 16 15 14 16 16 23 25 22 19 19 16 20 19 17 10 8 14 13 16 17 17 16 8 5 6 3 8
56 53 53 54 55 56 55 51 42 42 39 43 37 41 42 39 22 21 17 15 15 14 17 18 23 19 20 13 17 12 16 10 6 3 11 18 20 22 21 19 16 13 4 6
64 61 56 55 58 60 51 43 51 43 44 46 44 41 43 39 32 22 20 17 16 14 14 20 13 23 19 19 14 18 15 15 10 7 3 5 10 15 22 22 14 16 22 21
64 62 56 58 59 57 50 46 41 46 46 48 44 41 37 43 34 27 25 24 18 16 17 19 19 15 20 18 17 15 17 13 17 17 13 11 11 12 14 20 24 19 22 21
57 61 54 54 54 56 51 44 43 45 35 48 44 45 45 40 38 30 29 27 23 17 16 13 11 18 10 16 15 17 20 13 13 15 16 16 18 19 18 19 21 24 26 28
60 65 61 54 54 55 56 46 46 42 49 33 45 47 43 35 40 34 28 26 18 20 17 14 14 9 11 11 12 12 17 18 12 8 12 13 18 24 25 24 23 20 24 22
66 63 55 55 54 52 44 34 38 45 48 48 47 48 37 37 38 32 28 25 21 18 19 15 14 13 12 12 12 13 15 17 15 7 6 2 13 16 14 12 13 17 20 19
53 57 63 56 55 50 40 35 41 42 40 43 35 47 40 38 39 27 22 25 22 19 20 18 15 14 13 15 14 16 16 16 10 7 10 14 13 16 14 11 12 13 15 16
59 55 52 56 47 48 41 43 40 39 37 43 42 24 45 40 38 32 32 25 22 21 20 20 15 8 9 8 8 18 18 20 19 12 5 6 6 9 12 13 16 11 11 14
67 62 56 47 50 43 44 40 40 38 36 31 35 36 28 41 38 35 31 32 31 24 24 21 16 13 12 8 7 10 17 19 20 19 10 9 16 15 11 10 6 5 7 8
55 54 46 45 43 43 44 41 42 42 35 26 19 24 28 30 39 34 34 31 30 27 23 18 14 12 15 14 12 10 11 10 12 14 10 11 15 14 12 10 10 13 12 10
49 51 45 48 46 46 43 47 46 44 32 21 21 22 25 27 29 35 31 31 18 28 22 22 15 14 10 16 10 17 14 18 8 11 7 8 5 9 9 14 15 15 15 15
53 43 39 43 47 44 46 48 44 39 23 21 22 25 27 31 30 30 28 26 26 20 23 20 17 13 15 16 17 19 18 20 18 14 18 20 17 14 15 15 16 18 19 20
50 43 41 46 48 44 46 46 39 36 29 19 24 25 28 31 29 25 26 23 19 18 16 21 21 18 14 15 16 15 17 17 19 22 23 20 16 15 15 17 19 20 22 23
38 42 41 45 51 50 49 44 44 34 29 24 23 24 24 27 31 30 25 22 21 19 19 20 20 20 18 20 17 17 17 19 20 21 18 16 17 18 19 19 20 22 24 26
44 41 48 51 51 45 41 42 39 32 33 15 28 27 28 27 27 27 27 26 24 23 23 22 22 23 19 11 20 20 19 20 19 21 20 19 20 20 20 21 22 22 25 29
44 44 47 51 50 48 47 37 37 33 30 20 28 31 30 28 28 28 28 27 25 23 21 22 23 23 20 21 19 17 17 18 21 21 19 20 20 19 19 20 22 26 29 29
43 50 57 56 47 40 38 28 33 32 27 25 16 20 31 30 28 27 25 24 22 21 21 20 21 19 18 18 21 21 20 20 19 18 18 17 16 17 19 22 25 25 24 25
62 64 56 54 45 38 33 31 34 32 29 26 15 25 28 29 27 24 20 19 19 17 21 20 16 18 13 15 19 20 19 17 16 16 15 16 16 17 19 19 20 22 26 30
62 60 57 53 44 40 31 29 32 30 30 24 21 21 19 27 28 23 21 19 16 11 17 18 23 26 23 21 19 17 15 14 15 14 14 15 16 17 19 20 22 26 30 34
66 63 53 52 45 39 30 21 23 19 19 22 21 19 19 20 22 21 19 14 9 8 13 15 9 18 22 23 20 18 17 16 15 15 15 15 16 18 19 21 27 30 33 37
64 59 51 50 40 26 13 16 17 11 20 20 24 24 23 25 26 24 19 13 11 6 10 11 8 19 16 17 20 20 16 15 14 14 14 16 17 18 21 27 31 34 36 40
52 49 47 35 20 16 14 20 23 22 18 31 34 32 27 24 22 21 11 9 9 6 7 7 14 13 16 18 18 16 15 13 13 14 15 17 18 22 27 30 33 37 41 43
50 31 27 13 12 12 13 29 28 29 21 18 33 32 32 29 22 10 7 10 8 8 8 11 12 14 13 14 16 14 14 15 14 14 14 18 22 27 29 33 38 41 42 42
25 13 12 12 15 15 18 21 25 26 22 19 27 31 23 25 10 10 9 11 8 9 10 11 11 12 14 15 15 16 15 13 13 14 18 23 27 29 33 37 40 41 41 41
17 8 16 18 18 20 18 23 26 27 25 27 30 24 13 15 7 10 8 7 6 6 6 7 10 13 16 16 15 13 12 13 15 19 22 26 29 34 37 38 40 40 40 39
10 18 21 22 22 18 20 27 28 28 33 35 22 9 12 10 9 9 10 8 7 7 8 10 11 12 13 13 12 12 12 15 18 21 24 29 33 36 38 39 39 38 36 36

GFSNW_700_spd_303.txt.gz
Wind_Speed
58 57 52 52 49 47 42 43 41 39 37 38 42 42 34 21 20 23 18 14 16 14 18 26 25 21 16 15 24 22 19 9 8 16 14 18 21 20 19 10 7 8 4 9
58 58 52 52 54 46 43 44 41 41 42 46 42 41 40 27 21 23 22 16 14 15 15 15 25 23 21 13 18 16 18 11 6 4 11 17 21 24 23 22 16 13 5 6
66 60 54 50 54 47 43 43 45 42 45 43 42 42 40 33 28 21 22 20 15 13 16 21 12 26 22 21 18 19 16 17 11 9 4 4 9 16 23 23 14 17 23 19
69 51 58 54 55 50 47 50 42 49 47 49 44 40 39 38 31 27 21 20 17 16 17 21 18 21 23 21 20 19 20 15 18 18 13 11 10 12 12 19 24 21 21 20
68 54 55 56 52 52 51 53 47 50 45 37 45 40 41 37 42 34 31 25 20 17 16 12 5 20 17 20 24 19 18 13 15 15 17 16 17 20 21 21 24 27 27 27
70 67 61 53 58 57 58 52 46 41 42 42 40 49 44 42 37 37 32 28 22 21 15 11 11 9 13 9 15 18 19 16 12 8 12 12 18 24 25 26 27 24 25 22
72 62 62 61 62 59 51 45 47 43 39 37 37 42 41 43 35 39 30 27 26 21 18 15 13 13 12 12 12 13 13 15 12 6 5 3 13 15 15 15 14 18 20 19
70 60 57 61 60 48 46 45 44 45 36 30 37 41 43 40 35 34 31 25 25 20 19 16 15 15 12 14 14 14 15 14 9 6 10 11 13 15 14 13 14 13 13 13
72 59 51 55 60 52 44 43 46 42 31 32 32 37 42 37 40 32 28 25 28 25 21 20 16 10 10 8 9 20 19 18 17 12 5 6 4 7 9 10 13 11 10 9
55 73 51 54 62 49 47 46 45 39 30 32 41 46 46 48 38 39 32 28 28 26 25 24 17 14 13 8 8 10 17 18 20 20 10 8 16 17 12 7 5 7 6 8
60 55 53 55 56 55 54 46 47 39 32 24 25 35 32 36 42 38 38 33 30 27 23 21 14 12 17 14 13 9 11 9 11 15 10 10 13 12 10 9 8 10 12 12
46 53 48 53 61 51 46 46 36 41 31 19 20 30 30 29 33 39 38 36 23 31 26 22 14 15 15 20 12 19 13 16 7 11 7 7 4 6 8 13 13 13 13 12
58 42 52 57 49 54 42 45 40 38 27 21 29 25 27 30 34 37 37 32 30 21 27 23 19 13 19 19 19 17 16 14 15 13 15 16 15 14 13 15 16 14 14 14
58 53 54 55 48 40 47 40 37 36 36 23 28 28 26 25 29 32 33 30 26 24 18 23 22 16 13 15 14 12 14 13 15 18 17 16 17 15 14 15 15 15 16 19
52 48 44 46 47 49 43 44 42 39 26 21 25 27 28 27 30 30 31 27 24 22 20 21 21 20 16 13 13 16 15 15 15 14 13 14 12 12 14 15 16 18 20 21
40 43 46 46 46 51 49 46 44 40 28 25 26 25 26 28 28 27 25 26 25 23 21 20 21 19 15 9 14 18 18 16 15 16 16 16 16 16 15 16 19 20 20 22
51 46 41 46 53 50 49 44 42 45 31 19 24 24 24 25 27 30 29 26 25 24 22 21 21 20 18 21 22 20 14 13 14 17 18 17 16 15 16 17 17 18 21 24
47 47 46 52 53 52 46 33 41 43 32 22 16 19 29 29 30 29 27 27 25 23 22 21 21 20 20 19 23 22 18 17 17 15 16 17 15 15 15 15 17 20 21 21
53 52 51 54 53 49 39 34 44 36 31 21 16 25 30 30 28 28 25 25 23 20 21 22 16 19 14 16 17 14 16 15 17 20 18 15 14 14 14 16 17 18 19 22
53 53 57 52 46 40 34 37 37 27 28 26 22 16 23 30 31 28 24 20 18 11 18 16 21 20 22 20 17 19 15 14 18 16 15 14 13 13 14 15 15 17 22 27
60 63 54 48 45 39 34 23 23 19 20 23 23 20 17 26 31 28 21 16 11 8 10 15 10 23 25 23 22 17 17 20 18 15 14 12 12 13 14 15 17 22 27 30
65 64 57 53 40 18 10 20 18 14 21 20 25 24 21 27 31 19 17 10 8 6 14 10 10 26 22 17 18 20 22 19 17 13 12 11 12 13 15 17 22 26 29 34
63 62 50 37 20 15 17 21 22 18 28 27 35 31 27 24 24 15 12 10 11 10 8 9 16 13 13 18 21 23 22 18 14 12 11 11 12 14 18 22 25 29 33 37
57 35 28 14 12 13 12 33 32 29 17 29 29 31 26 25 21 11 8 9 8 8 9 11 12 12 16 19 21 19 16 14 12 11 10 11 14 18 22 25 29 33 36 38
32 14 12 13 15 14 18 19 31 31 23 20 32 36 25 27 11 9 9 10 8 8 10 13 15 17 16 18 19 18 15 14 12 11 11 14 18 21 25 30 33 35 37 36
16 10 19 18 18 20 19 18 23 28 30 30 34 21 19 13 10 10 9 8 7 8 7 10 11 14 16 17 17 16 14 12 10 11 14 17 20 24 28 31 33 34 34 33
14 16 21 21 17 20 19 23 28 31 33 34 22 12 11 11 10 11 13 11 10 9 8 8 10 11 15 17 16 14 11 9 11 13 17 21 25 29 31 31 29 30 31 32

GFSNW_700_spd_309.txt.gz
Wind_Speed
71 69 66 58 54 38 50 46 42 40 35 39 39 38 21 18 24 19 18 15 16 13 13 14 16 15 14 16 22 25 24 12 9 10 21 25 19 16 17 10 7 10 9 10
74 71 67 62 57 49 50 48 44 41 40 43 42 31 22 18 26 24 24 26 23 15 9 7 15 13 24 17 17 18 23 12 7 4 14 20 27 27 27 26 14 15 8 7
75 74 69 64 60 44 49 51 42 41 45 38 43 33 29 25 24 22 21 23 26 28 25 16 10 17 18 21 18 25 20 19 13 13 7 7 22 29 28 30 17 19 26 21
75 76 72 71 63 57 55 59 51 51 53 47 33 34 24 27 25 29 25 22 20 23 26 19 20 17 16 19 21 20 23 22 24 24 17 13 12 13 18 31 30 19 15 15
73 77 70 71 60 64 54 59 56 51 32 46 38 33 30 30 25 26 31 24 26 26 23 22 9 13 19 16 19 24 28 18 20 20 23 24 20 19 22 22 24 29 25 24
75 78 64 76 58 49 54 62 52 40 42 35 42 41 34 29 28 21 20 26 28 26 25 21 18 13 11 15 17 20 25 27 19 9 14 15 18 29 29 27 28 24 26 18
76 80 70 76 63 59 56 69 59 54 38 41 39 36 33 27 28 27 24 24 27 27 22 20 19 16 14 13 17 15 17 21 19 12 5 5 16 21 21 24 23 21 19 18
77 80 71 72 66 68 57 57 53 48 43 37 32 30 30 26 24 28 23 29 28 26 29 23 17 14 14 15 17 19 16 16 10 7 11 17 17 19 15 11 11 16 16 17
77 80 67 82 50 55 56 57 60 44 45 39 30 34 29 28 25 27 34 30 26 26 25 23 16 11 10 9 8 18 18 20 14 11 5 4 7 13 10 11 9 15 14 19
77 61 62 63 44 52 49 57 54 50 41 26 31 27 29 28 26 31 38 36 32 31 29 28 16 15 10 9 10 14 22 23 23 19 10 10 19 19 15 6 9 11 9 13
71 68 82 67 49 42 44 50 50 47 36 31 33 28 26 27 29 36 34 37 35 32 28 24 16 11 17 12 11 13 14 15 18 16 11 12 19 16 11 13 11 11 11 11
70 63 68 69 48 49 44 45 45 46 38 29 28 29 24 23 18 24 29 31 28 30 28 20 22 16 18 18 12 20 15 15 8 12 7 12 10 9 7 12 14 14 14 15
65 75 69 65 54 44 42 42 44 42 40 37 24 29 23 23 29 32 28 31 30 30 31 28 21 13 20 15 16 20 21 23 23 21 21 22 20 17 16 16 17 16 17 18
66 65 83 65 54 56 43 43 49 40 36 34 30 24 25 24 27 30 31 27 26 24 29 28 21 19 19 19 22 20 22 19 22 23 25 21 20 19 18 19 18 18 19 19
67 70 82 67 52 57 45 44 51 43 37 29 33 25 24 22 30 35 34 36 30 26 24 26 24 22 20 19 16 19 18 20 17 12 18 16 20 18 18 18 19 20 19 18
65 59 60 64 50 45 48 54 50 44 41 34 21 32 25 23 30 40 35 38 42 29 29 25 24 20 19 11 19 23 19 19 19 20 20 21 18 17 17 17 18 18 18 19
51 60 59 51 50 51 44 52 47 45 45 38 18 16 28 28 29 31 30 29 29 30 27 26 24 23 22 21 21 23 20 17 17 19 21 20 19 18 17 17 17 18 19 20
59 60 63 48 48 42 40 43 38 42 41 24 12 13 27 31 30 27 29 36 30 27 26 26 24 21 20 21 27 27 24 24 22 20 19 19 17 18 18 17 18 19 20 20
64 64 63 55 55 52 43 42 35 34 32 19 15 23 28 34 33 29 27 29 29 27 28 27 23 26 20 24 27 24 24 22 21 19 19 19 17 17 17 17 18 19 20 21
63 63 55 53 59 50 48 34 41 38 31 21 17 25 25 36 36 31 29 25 19 16 27 23 29 26 29 29 28 25 23 19 18 17 17 16 16 15 16 17 18 19 20 20
55 66 57 50 60 53 39 23 27 25 19 23 25 23 28 34 35 33 25 14 15 13 17 21 18 26 31 29 29 29 25 21 20 20 17 16 15 15 16 17 18 18 18 19
65 64 47 51 48 25 12 24 24 15 17 25 31 28 30 33 33 20 19 15 12 7 16 17 17 23 22 23 25 27 25 23 22 19 18 17 13 15 17 17 16 16 19 22
63 53 48 39 23 17 20 29 22 20 26 35 39 33 33 33 26 15 15 11 12 10 10 9 18 17 21 21 18 20 24 24 21 19 18 14 14 15 15 14 16 19 21 24
57 33 27 19 13 21 16 28 27 29 22 38 40 35 33 32 21 11 9 11 9 11 10 17 14 16 18 20 20 21 20 20 20 19 15 13 14 13 13 15 18 20 24 27
27 17 17 23 21 24 18 23 29 29 21 37 41 37 32 30 13 10 10 11 10 10 13 19 18 21 18 17 17 18 20 20 18 15 13 13 13 13 15 17 20 23 26 28
23 14 20 24 24 30 19 23 35 33 26 35 38 26 21 15 10 11 12 8 8 11 5 9 11 12 14 17 21 21 21 18 15 14 13 13 13 15 17 19 23 25 27 29
13 22 22 28 23 28 23 29 34 33 35 39 31 15 19 11 13 12 15 14 10 7 8 8 10 12 16 18 19 19 18 17 14 12 11 13 14 17 20 23 25 27 29 29

GFSNW_700_spd_315.txt.gz
Wind_Speed
44 46 47 52 56 51 52 35 41 49 43 41 41 40 34 18 17 20 16 21 22 24 20 14 13 8 11 17 20 16 19 10 11 13 12 11 22 25 21 13 6 10 4 10
45 46 47 48 56 54 53 42 34 39 38 43 40 39 37 28 18 19 22 18 20 22 24 19 12 15 13 14 13 6 16 9 5 5 16 18 22 25 27 28 21 23 6 8
42 45 47 47 55 56 52 45 26 45 40 43 41 40 39 35 18 17 22 18 18 22 26 25 12 19 21 19 14 13 16 15 14 11 7 5 9 22 27 27 21 25 29 23
36 42 47 47 54 56 48 53 26 44 40 50 42 36 32 37 28 23 20 21 20 20 21 24 26 27 28 18 11 11 17 18 20 22 22 22 20 17 15 24 31 32 34 27
34 40 44 48 56 59 50 56 36 42 45 39 41 41 38 39 29 30 27 28 23 23 23 23 23 24 26 24 21 13 17 17 18 23 24 25 26 27 30 31 31 33 34 37
31 33 41 48 60 59 49 46 42 44 44 35 44 44 43 33 33 22 23 26 19 21 22 20 20 21 23 27 25 20 17 17 18 16 19 17 16 31 27 29 34 35 34 31
28 32 36 47 62 66 47 47 36 37 39 39 38 43 38 31 33 27 21 23 19 19 20 19 20 20 20 16 15 15 12 14 14 9 10 3 15 17 14 16 18 22 26 25
30 29 33 45 60 67 47 42 35 45 41 34 35 41 34 33 26 29 23 24 23 24 19 18 16 18 17 16 16 18 17 16 12 6 11 16 15 15 19 20 19 20 22 14
30 28 33 43 59 60 48 41 41 37 40 45 40 36 36 38 33 26 30 28 25 24 24 22 18 11 15 7 12 23 22 23 21 13 6 5 2 6 8 10 17 16 17 18
30 29 31 42 58 63 51 57 38 44 43 39 38 37 44 33 35 33 32 31 29 29 29 27 23 20 16 12 17 17 25 27 27 25 12 8 15 20 18 13 15 15 14 13
30 29 30 41 52 64 50 52 43 48 40 26 39 37 43 43 34 38 38 34 36 34 30 28 20 17 21 22 17 18 18 17 21 20 11 13 16 18 15 13 14 16 16 15
30 29 32 41 50 65 47 53 50 42 42 35 38 46 41 47 37 34 38 37 27 33 24 28 18 18 18 23 18 18 17 20 10 15 8 10 9 12 16 17 17 18 16 15
29 29 35 43 50 64 44 57 56 40 35 36 40 41 36 31 34 42 38 41 38 26 23 26 23 19 26 25 26 20 22 20 18 17 20 19 19 20 21 23 22 20 18 17
28 31 36 42 53 61 53 55 51 48 30 23 32 35 40 40 38 34 37 33 30 26 26 28 28 22 19 26 20 22 24 19 20 21 20 22 22 18 19 21 19 18 20 18
28 33 40 36 59 58 50 51 50 51 36 25 36 34 38 30 31 36 37 29 26 24 24 30 27 26 22 19 21 26 22 22 20 20 22 19 17 15 14 14 16 17 18 18
31 36 38 45 59 52 44 51 50 41 45 31 31 41 41 40 43 39 30 27 21 24 25 30 32 29 21 15 23 22 22 21 22 18 17 16 16 16 18 17 17 18 18 17
37 38 37 53 59 47 49 57 61 53 49 39 19 26 34 38 34 33 31 26 26 27 29 28 27 25 23 25 24 21 21 21 18 15 14 14 17 18 19 17 17 15 15 15
43 35 43 56 48 48 46 49 47 52 47 39 16 11 30 35 36 36 37 31 28 28 28 28 27 23 22 26 26 24 23 23 22 19 17 17 18 19 18 17 16 15 15 16
39 41 46 35 53 48 46 44 34 45 47 30 28 25 21 34 33 34 33 30 29 26 32 33 30 32 25 27 27 29 27 22 21 20 17 16 17 17 17 17 17 14 16 19
42 53 44 40 54 48 48 33 31 33 40 37 31 32 27 32 34 30 29 21 24 13 25 23 32 38 37 36 31 25 24 25 20 15 16 18 17 17 18 18 14 15 18 18
38 48 46 54 57 51 40 25 28 26 22 34 35 35 30 27 25 31 23 13 12 9 13 17 12 32 31 27 28 27 25 23 21 21 21 20 19 19 15 13 15 17 16 17
30 48 41 54 51 25 12 23 26 20 22 28 42 33 24 29 25 19 18 12 11 7 10 11 9 22 18 22 27 27 25 24 24 24 23 19 15 14 14 14 15 15 15 16
38 44 47 41 30 14 17 20 27 22 31 31 43 37 30 28 26 15 14 12 11 9 10 9 11 9 15 18 20 23 26 25 24 22 17 14 14 12 10 14 13 14 16 18
33 24 25 23 13 15 30 45 46 36 36 36 39 38 36 32 24 12 9 12 10 10 10 11 12 15 17 18 19 21 22 21 19 15 13 10 8 11 13 11 13 15 17 20
26 14 14 19 30 34 32 39 37 35 24 28 35 31 31 33 13 12 10 14 10 11 10 11 17 19 19 17 17 18 17 15 14 11 9 11 11 8 9 11 14 16 19 23
29 12 21 30 29 33 32 33 38 36 30 30 30 30 19 16 10 13 12 10 10 10 7 9 11 13 15 16 15 14 13 12 12 12 11 8 7 9 10 12 15 19 23 27
24 24 32 35 41 38 34 33 42 40 31 31 35 19 15 12 13 14 15 12 11 9 11 8 7 8 11 13 14 14 14 14 12 10 9 8 8 9 11 14 18 22 25 28